User: anonymous   Login
Location: Unspecified
(0.0000°N, 0.0000°E)
Time: 11:50:26
(UTC+00:00)
Language:

Vanguard 1 - Orbit

View from above orbital plane
View from above orbital plane
View from above satellite
View from above satellite

Ground track
Ground track

The orbit data is extracted from the following two-line orbital elements,

1 00005U 58002B   22337.69062528  .00000096  00000-0  14642-3 0  9990
2 00005  34.2490 337.8466 1845708  79.3599 300.8504 10.85038975302923
Epoch (UTC): 03 December 2022 16:34:30
Eccentricity: 0.1845708
inclination: 34.2490°
perigee height: 650 km
apogee height: 3831 km
right ascension of ascending node: 337.8466°
argument of perigee: 79.3599°
revolutions per day: 10.85038975
mean anomaly at epoch: 300.8504°
orbit number at epoch: 30292

The dashed part of the orbit path shows where the satellite is in the earth's shadow,  

DLR